Torna al catalogo

STARLINK-32579

AttivoComunicazioniVLEO
NORAD 61922·PAYLOAD·🇺🇸 United States

Lanciato Nov 11, 2024 da Cape Canaveral Space Force Station

Loading…

Prossimi Passaggi (prossime 24 ore)

TLE

AggiornatoSource: CelesTrak SupGP

Epoca: Sep 15, 2026, 02:49 UTC

1 61922C 24207L   26258.11784722  .00018499  00000+0  66993-3 0  2584
2 61922  43.0002 295.6306 0001363 262.6598 330.5323 15.27574618    19

Traccia STARLINK-32579 in tempo reale con AllMySat

Download on the App Store